Weather observations for the past three days for
Atqasuk
Imperial (Metric)
Date Time (akdt) Wind (mph) Vis. (mi.) Weather Sky Cond. Temperature (ºF) Relative Humidity Wind Chill (°F) Heat Index (°F) Pressure Precipitation (in)
Air Dwpt 6 hour altimeter (in) sea level (mb) 1 hr 3 hr 6 hr
Max. Min.
15 14:56 N 7 10.00 Overcast BKN009 OVC014 37 34 89% 32 29.63 1003.8
15 13:56 N 8 9.00 Overcast BKN010 OVC016 37 34 89% 32 29.63 1003.8
15 12:56 N 7 10.00 Overcast OVC010 37 34 89% 32 29.62 1003.5
15 11:56 N 6 10.00 Overcast OVC008 36 34 93% 32 29.61 1002.9
15 10:56 N 8 3.00 Fog/Mist OVC006 36 34 93% 30 29.61 1003.2
15 09:56 N 8 10.00 Overcast OVC006 35.1 34 36 35.1 96% 29 29.61 1003.1 0.03
15 08:56 N 9 5.00 Unknown Precip Fog/Mist OVC006 35.1 34 96% 29 29.6 1002.6
15 07:56 NE 13 2.50 Light Rain Fog/Mist OVC006 35.1 34 96% 27 29.59 1002.4 0.01
15 06:56 NE 14 9.00 Light Rain OVC006 35.1 34 96% 27 29.59 1002.4 0.02
15 05:56 NE 13 6.00 Light Rain Fog/Mist BKN008 OVC014 35.1 34 96% 27 29.58 1002.2 0.02
15 04:56 NE 9 2.50 Light Rain Fog/Mist OVC007 35.1 34 96% 29 29.59 1002.3
15 03:56 NE 13 9.00 Unknown Precip OVC007 35.1 34 37 35.1 96% 27 29.57 1001.8
15 02:56 NE 14 4.00 Light Rain Fog/Mist OVC005 35.1 35.1 100% 27 29.58 1002.2
15 01:56 NE 15 4.00 Fog/Mist OVC005 36 35.1 97% 27 29.57 1001.6
15 00:56 NE 17 10.00 Overcast BKN010 OVC013 36 35.1 97% 27 29.57 1001.5
14 23:56 NE 16 10.00 Light Rain OVC010 36 35.1 97% 27 29.57 1001.6
14 22:56 NE 17 10.00 Light Rain OVC010 37 35.1 93% 28 29.56 1001.4
14 21:56 NE 18 10.00 Light Rain OVC008 37 35.1 41 37 93% 28 29.55 1001.2 0.01 0.04
14 20:56 NE 22 9.00 Light Rain and Breezy OVC008 37 36 96% 27 29.54 1000.8 0.01
14 19:56 NE 18 9.00 Light Rain OVC008 37.9 37 97% 29 29.54 1000.6
14 18:56 NE 21 9.00 Light Rain and Breezy OVC008 39 37 93% 30 29.54 1000.7 0.01 0.02
14 17:56 NE 18 10.00 Light Rain OVC006 39 37.9 96% 30 29.53 1000.2 0.01
14 16:56 NE 18 10.00 Light Rain OVC006 39.9 37.9 93% 31 29.53 1000.5
14 15:56 NE 23 10.00 Light Rain and Breezy OVC006 41 39 42.1 39 93% 32 29.51 999.7
14 14:56 NE 22 9.00 Light Rain and Breezy OVC006 41 39.9 96% 32 29.52 999.9
14 13:56 NE 16 10.00 Light Rain OVC006 42.1 39.9 92% 35 29.52 1000.1
14 12:56 NE 14 10.00 Light Rain OVC002 41 39.9 96% 34 29.52 1000.1
14 11:56 NE 12 10.00 Overcast OVC002 39.9 39.9 100% 34 29.52 999.8
14 10:56 NE 12 9.00 Overcast OVC002 39.9 39.9 100% 34 29.51 999.7
14 09:56 NE 12 0.75 Fog/Mist OVC002 39 39 39.9 37.9 100% 32 29.53 1000.2
14 08:54 NE 14 4.00 Fog/Mist OVC002 37.9 37.9 100% 30 29.51 999.5
14 06:56 NE 13 0.25 Fog OVC002 37.9 37.9 100% 31 29.51 999.8
14 00:56 NE 12 10.00 A Few Clouds FEW006 46 44.1 93% 41 29.56 1001.2
13 23:56 NE 14 10.00 Fair CLR 48.9 46 90% 44 29.53 1000.3
13 22:56 NE 14 10.00 Fair CLR 53.1 50 89% 29.53 1000.2
13 21:56 NE 7 10.00 Fair CLR 59 52 60.1 51.1 78% 29.53 1000.2
13 20:56 NE 7 10.00 Fair CLR 60.1 51.1 72% 29.53 1000.2
13 19:56 E 5 10.00 Fair CLR 59 51.1 75% 29.53 1000.3
13 18:56 NE 8 10.00 Fair CLR 57.9 51.1 78% 29.53 1000.3
13 17:56 E 8 10.00 Fair CLR 57 51.1 81% 29.53 1000.4
13 16:56 Calm 10.00 Fair CLR 55.9 50 81% 29.55 1000.9
13 15:56 NE 6 10.00 Mostly Cloudy BKN060 51.1 46.9 51.1 41 86% 29.55 1000.8 0.02
13 14:56 E 5 10.00 Overcast BKN006 OVC050 48.9 46 90% 48 29.57 1001.6
13 13:56 SE 6 10.00 Overcast OVC006 48 45 89% 46 29.55 1001.1
13 12:56 NE 10 10.00 Overcast BKN004 OVC075 46 44.1 93% 42 29.53 1000.3 0.01 0.02
13 11:56 N 6 10.00 Light Rain SCT004 BKN034 BKN041 44.1 43 96% 41 29.54 1000.7
13 10:56 NE 7 10.00 Mostly Cloudy BKN004 42.1 41 96% 38 29.56 1001.3 0.01
13 09:56 NE 7 10.00 Light Rain OVC004 41 39.9 41 39 96% 37 29.55 1001.1
13 08:56 E 5 1.50 Light Rain Fog/Mist OVC002 39.9 39.9 100% 37 29.58 1002.0
13 07:56 NE 9 0.50 Fog OVC002 39.9 39.9 100% 34 29.56 1001.2
13 06:56 NE 10 10.00 Overcast OVC004 39.9 39 97% 34 29.57 1001.8
13 05:56 NE 10 10.00 Overcast OVC004 39.9 39 97% 34 29.58 1001.9
13 04:56 NE 12 10.00 Fair CLR 39.9 37.9 93% 34 29.6 1002.8
13 03:56 NE 8 10.00 Mostly Cloudy BKN004 39 39 51.1 39 100% 34 29.61 1003.1
13 02:56 NE 13 10.00 A Few Clouds FEW120 39.9 37.9 93% 33 29.63 1003.7
13 01:56 NE 12 10.00 A Few Clouds FEW005 39.9 39 97% 34 29.64 1004.2
13 00:56 NE 12 10.00 Mostly Cloudy BKN100 43 39.9 89% 37 29.65 1004.5
12 23:56 NE 13 10.00 Overcast OVC100 45 39.9 83% 39 29.65 1004.5
12 22:56 NE 16 10.00 Overcast OVC095 48 42.1 80% 42 29.66 1004.5
12 21:56 NE 18 10.00 Fair CLR 51.1 43 55.9 51.1 74% 29.66 1004.9
12 20:56 E 15 10.00 Fair CLR 53.1 44.1 72% 29.7 1005.9
12 19:56 E 20 10.00 Fair CLR 55 44.1 67% 29.69 1005.8
12 18:56 NE 20 10.00 Fair CLR 55.9 46 70% 29.7 1006.2
12 17:56 NE 15 10.00 Fair CLR 55 46 72% 29.73 1006.9
12 16:56 E 14 10.00 Fair CLR 55 46 72% 29.76 1008.0
Date Time (akdt) Wind (mph) Vis. (mi.) Weather Sky Cond. Air Dwpt Max. Min. Relative Humidity Wind Chill (°F) Heat Index (°F) altimeter (in) sea level (mb) 1 hr 3 hr 6 hr
6 hour
Temperature (ºF) Pressure Precipitation (in)